Narsarsuaq, Greenland

8:25 PM -02 on April 25, 2018 (GMT -0200)
Narsarsuaq

Weather History for BGBW - January, 2010

Change the Weather History Date:

Thursday, January 7, 2010

  Actual Average Record
Temperature  
Mean Temperature 36 °F -  
Max Temperature 50 °F 28 °F 50 °F (1997)
Min Temperature 23 °F 12 °F -2 °F (2006)
Degree Days  
Heating Degree Days 28    
Moisture  
Dew Point 19 °F    
Average Humidity 44    
Maximum Humidity 69    
Minimum Humidity 16    
Precipitation  
Precipitation 0.00 in 0.05 in - ()
Sea Level Pressure  
Sea Level Pressure 29.65 in    
Wind  
Wind Speed 9 mph ()    
Max Wind Speed 37 mph    
Max Gust Speed -    
Visibility 6.2 miles    
Events      
Averages and records for this station are not official NWS values.
T = Trace of Precipitation, MM = Missing Value Source: Averaged Metar Reports

Daily Weather History Graph

Daily Weather History Graph

Search for Another Location

Airport or City:

Astronomy

Jan. 07, 2010 Rise Set
Actual Time 9:09 AM -03 3:06 PM -03
Civil Twilight 8:11 AM -03 4:05 PM -03
Nautical Twilight 7:13 AM -03 5:03 PM -03
Astronomical Twilight 6:20 AM -03 5:56 PM -03
Moon 12:51 AM -03 (1/7) 10:21 AM -03 (1/7)
Length of Visible Light 7h 54m
Length of Day
5h 56m
Waning Gibbous, 48% of the Moon is Illuminated
Jan 7
Waning Gibbous
Jan 15
New
Jan 23
First Quarter
Jan 30
Full
Feb 5
Last Quarter

Hourly Weather History & Observations

Time (-03) Temp. Windchill Dew Point Humidity Pressure Visibility Wind Dir Wind Speed Gust Speed Precip Events Conditions
12:00 AM 23 °F - 16 °F 65% 29.85 in 28 mi NE 5.8 mph - -   Partly Cloudy
3:00 AM 28 °F - 20 °F 62% 29.83 in 31 mi SE 2.3 mph - -   Scattered Clouds
5:50 AM 28.4 °F 22.2 °F 17.6 °F 64% 29.83 in 6.2 mi ENE 5.8 mph - N/A   Mostly Cloudy
6:00 AM 29 °F - 16 °F 44% 29.84 in 31 mi East 4.6 mph - -   Mostly Cloudy
6:50 AM 26.6 °F 21.2 °F 17.6 °F 69% 29.83 in 6.2 mi ENE 4.6 mph - N/A   Scattered Clouds
7:50 AM 28.4 °F 24.6 °F 17.6 °F 64% 29.83 in 6.2 mi East 3.5 mph - N/A   Scattered Clouds
8:50 AM 28.4 °F 22.2 °F 17.6 °F 64% 29.80 in 6.2 mi ENE 5.8 mph - N/A   Mostly Cloudy
9:00 AM 30 °F - 16 °F 43% 29.80 in 22 mi East 4.6 mph - -   Mostly Cloudy
9:50 AM 35.6 °F 32.8 °F 19.4 °F 52% 29.77 in 6.2 mi ESE 3.5 mph - N/A   Mostly Cloudy
10:50 AM 28.4 °F 23.3 °F 19.4 °F 69% 29.71 in 6.2 mi WSW 4.6 mph - N/A   Mostly Cloudy
11:50 AM 46.4 °F 39.5 °F 19.4 °F 34% 29.65 in 6.2 mi East 17.3 mph - N/A   Mostly Cloudy
12:00 PM 45 °F - 17 °F 19% 29.67 in 28 mi East 17.3 mph - -   Mostly Cloudy
12:50 PM 46.4 °F 38.7 °F 19.4 °F 34% 29.59 in 6.2 mi East 20.7 mph - N/A   Overcast
1:50 PM 46.4 °F 38.7 °F 23.0 °F 40% 29.53 in 6.2 mi East 20.7 mph - N/A   Overcast
2:50 PM 46.4 °F 38.1 °F 23.0 °F 40% 29.47 in 6.2 mi East 24.2 mph - N/A   Overcast
3:00 PM 49 °F - 19 °F 18% 29.49 in 31 mi East 25.3 mph - -   Scattered Clouds
3:50 PM 48.2 °F - 24.8 °F 40% 29.44 in 6.2 mi ENE 20.7 mph - N/A   Overcast
4:50 PM 50.0 °F - 23.0 °F 35% 29.42 in 6.2 mi East 23.0 mph - N/A   Mostly Cloudy
6:00 PM 48 °F - 18 °F 18% 29.40 in 31 mi East 15.0 mph - -   Partly Cloudy
9:00 PM 49 °F - 17 °F 16% 29.28 in 28 mi ENE 36.8 mph - -   Mostly Cloudy